Weather History for KHYA - April, 2014

Change the Weather History Date:

Saturday, April 19, 2014

  Actual Average Record
Temperature  
Mean Temperature 46 °F -  
Max Temperature 61 °F 56 °F 81 °F (1976)
Min Temperature 33 °F 38 °F 24 °F (1966)
Degree Days  
Heating Degree Days 18    
Moisture  
Dew Point 34 °F    
Average Humidity 65    
Maximum Humidity 92    
Minimum Humidity 37    
Precipitation  
Precipitation 0.00 in - - ()
Sea Level Pressure  
Sea Level Pressure 30.22 in    
Wind  
Wind Speed 5 mph (NNW)    
Max Wind Speed 16 mph    
Max Gust Speed 25 mph    
Visibility 10 miles    
Events      
Averages and records for this station are not official NWS values.
T = Trace of Precipitation, MM = Missing Value Source: NWS Daily Summary

Daily Weather History Graph

Daily Weather History Graph

Search for Another Location

Airport or City:

Trip Planner

Search our weather history database for the weather conditions in past years. The results will help you decide how hot, cold, wet, or windy it might be!

Date:

Astronomy

Apr. 19, 2014 Rise Set
Actual Time 5:54 AM EDT 7:26 PM EDT
Civil Twilight 5:25 AM EDT 7:55 PM EDT
Nautical Twilight 4:50 AM EDT 8:30 PM EDT
Astronomical Twilight 4:13 AM EDT 9:08 PM EDT
Moon No Moon Rise 9:08 AM EDT (4/19)
Length of Visible Light 14h 29m
Length of Day
13h 31m
Waning Gibbous, 79% of the Moon is Illuminated
Apr 19
Waning Gibbous
Apr 22
Last Quarter
Apr 29
New
May 6
First Quarter
May 14
Full

Hourly Weather History & Observations

Time (EDT) Temp. Windchill Dew Point Humidity Pressure Visibility Wind Dir Wind Speed Gust Speed Precip Events Conditions
12:56 AM 36.0 °F - 33.1 °F 89% 30.23 in 10.0 mi Calm Calm - N/A   Clear
1:56 AM 33.1 °F - 30.9 °F 92% 30.21 in 10.0 mi Calm Calm - N/A   Clear
2:28 AM 33.1 °F - 30.9 °F 92% 30.21 in 10.0 mi Calm Calm - N/A   Mostly Cloudy
2:56 AM 35.1 °F - 33.1 °F 92% 30.21 in 10.0 mi Calm Calm - N/A   Overcast
3:56 AM 39.9 °F 37.8 °F 36.0 °F 86% 30.20 in 10.0 mi West 3.5 mph - N/A   Overcast
4:22 AM 39.0 °F 34.0 °F 35.1 °F 86% 30.19 in 10.0 mi SW 6.9 mph - N/A   Scattered Clouds
4:56 AM 37.9 °F 33.5 °F 35.1 °F 89% 30.19 in 10.0 mi SW 5.8 mph - N/A   Clear
5:56 AM 39.0 °F 33.4 °F 36.0 °F 89% 30.18 in 9.0 mi WSW 8.1 mph - N/A   Clear
6:56 AM 41.0 °F 35.8 °F 37.9 °F 89% 30.17 in 10.0 mi SW 8.1 mph - N/A   Clear
7:56 AM 45.0 °F 40.1 °F 37.9 °F 76% 30.17 in 10.0 mi WSW 9.2 mph - N/A   Clear
8:56 AM 50.0 °F - 36.0 °F 59% 30.17 in 10.0 mi West 9.2 mph - N/A   Clear
9:56 AM 55.0 °F - 36.0 °F 49% 30.16 in 10.0 mi West 8.1 mph - N/A   Clear
10:56 AM 55.9 °F - 36.0 °F 47% 30.17 in 10.0 mi North 15.0 mph 19.6 mph N/A   Clear
11:56 AM 55.0 °F - 35.1 °F 47% 30.17 in 10.0 mi North 16.1 mph 25.3 mph N/A   Clear
1:56 PM 60.1 °F - 34.0 °F 38% 30.17 in 10.0 mi North 13.8 mph 24.2 mph N/A   Clear
2:56 PM 59.0 °F - 33.1 °F 38% 30.18 in 10.0 mi NNE 12.7 mph 23.0 mph N/A   Clear
3:56 PM 57.9 °F - 32.0 °F 37% 30.19 in 10.0 mi North 13.8 mph 21.9 mph N/A   Clear
4:56 PM 57.9 °F - 34.0 °F 41% 30.20 in 10.0 mi NNE 11.5 mph - N/A   Clear
5:56 PM 57.9 °F - 32.0 °F 37% 30.22 in 10.0 mi NNE 10.4 mph - N/A   Clear
6:56 PM 53.1 °F - 33.1 °F 47% 30.25 in 10.0 mi NNE 5.8 mph - N/A   Partly Cloudy
7:56 PM 50.0 °F - 34.0 °F 54% 30.28 in 10.0 mi NE 6.9 mph - N/A   Clear
8:56 PM 48.0 °F - 33.1 °F 56% 30.33 in 10.0 mi NE 8.1 mph - N/A   Clear
9:56 PM 46.9 °F - 34.0 °F 61% 30.35 in 10.0 mi NNE 5.8 mph - N/A   Clear
10:56 PM 45.0 °F 42.6 °F 34.0 °F 65% 30.37 in 10.0 mi North 4.6 mph - N/A   Clear
11:56 PM 45.0 °F 40.1 °F 33.1 °F 63% 30.37 in 10.0 mi North 9.2 mph - N/A   Clear